KLM19XU EHAM-LTFM

Flight info

Callsign KLM19XU
Flight time N/A
Altitude 37000
Route EDUPO Z739 MISGO DOJOH DODEN NEGIX DINKU BESNI GOMIG GOTAR NALOX BABIT ESIRI ETIDA T390 RILEX
Aircraft A21N/M-SDE2E3FGHIRWXY/LB1

Departure

Time 2026-05-04 11:05
Airport Amsterdam Airport Schiphol (EHAM)

Arrival

Time N/A
Airport İstanbul Airport (LTFM)
Time Latitude Longitude Altitude Speed Heading
2026-05-04 10:27 52.30795 4.77167 4 ft 0 kts 183°
2026-05-04 10:57 52.30813 4.77169 4 ft 2 kts 185°
2026-05-04 10:57 52.30834 4.77166 4 ft 4 kts 143°
2026-05-04 10:57 52.30846 4.77133 4 ft 4 kts 96°
2026-05-04 10:58 52.30847 4.77112 4 ft 1 kts 93°
2026-05-04 10:58 52.30847 4.77110 4 ft 0 kts 93°
2026-05-04 10:59 52.30847 4.77113 4 ft 1 kts 93°
2026-05-04 11:00 52.30846 4.77135 4 ft 3 kts 93°
2026-05-04 11:01 52.30631 4.77492 4 ft 7 kts 151°
2026-05-04 11:02 52.30581 4.77535 4 ft 9 kts 154°
2026-05-04 11:02 52.30523 4.77581 4 ft 10 kts 153°
2026-05-04 11:05 52.21694 4.73337 4704 ft 249 kts 115°
2026-05-04 11:06 52.20941 4.75898 5445 ft 253 kts 117°
2026-05-04 11:06 52.20124 4.78485 6062 ft 263 kts 119°
2026-05-04 11:06 52.19196 4.81149 6550 ft 275 kts 120°
2026-05-04 11:06 52.18234 4.83866 7233 ft 279 kts 120°
2026-05-04 11:08 52.20829 5.06718 11016 ft 349 kts 73°
2026-05-04 11:10 52.20478 5.35144 14339 ft 394 kts 129°
2026-05-04 11:12 52.08932 5.61131 17775 ft 413 kts 128°
2026-05-04 11:12 52.07258 5.64945 18233 ft 416 kts 128°
2026-05-04 11:12 52.05504 5.68692 18626 ft 417 kts 132°
2026-05-04 11:12 52.03630 5.72225 19031 ft 419 kts 133°
2026-05-04 11:13 52.01718 5.75794 19403 ft 420 kts 134°
2026-05-04 11:13 51.99790 5.79378 19794 ft 421 kts 134°
2026-05-04 11:13 51.97866 5.82966 20167 ft 423 kts 134°
2026-05-04 11:13 51.95931 5.86578 20530 ft 425 kts 134°
2026-05-04 11:14 51.93990 5.90203 20854 ft 427 kts 134°
2026-05-04 11:14 51.92036 5.93842 21165 ft 429 kts 134°
2026-05-04 11:14 51.90071 5.97496 21472 ft 431 kts 135°
2026-05-04 11:16 51.76083 6.23259 23392 ft 440 kts 135°
2026-05-04 11:16 51.74047 6.26966 23612 ft 442 kts 136°
2026-05-04 11:16 51.72009 6.30678 23764 ft 443 kts 136°
2026-05-04 11:17 51.69967 6.34395 23919 ft 443 kts 136°
2026-05-04 11:17 51.67921 6.38109 24047 ft 443 kts 136°
2026-05-04 11:19 51.53529 6.64184 24607 ft 447 kts 136°
2026-05-04 11:19 51.51455 6.67912 24687 ft 448 kts 136°
2026-05-04 11:19 51.49376 6.71641 24768 ft 448 kts 136°
2026-05-04 11:19 51.47296 6.75369 24819 ft 449 kts 137°
2026-05-04 11:20 51.45208 6.79108 24884 ft 450 kts 137°
2026-05-04 11:20 51.43117 6.82844 24955 ft 451 kts 137°
2026-05-04 11:20 51.41021 6.86580 25013 ft 451 kts 137°
2026-05-04 11:20 51.38832 6.90164 25081 ft 449 kts 141°
2026-05-04 11:22 51.23131 7.14440 25651 ft 451 kts 141°
2026-05-04 11:22 51.20871 7.17921 25700 ft 452 kts 141°
2026-05-04 11:23 51.18610 7.21399 25748 ft 452 kts 141°
2026-05-04 11:23 51.16393 7.24804 25813 ft 453 kts 141°
2026-05-04 11:24 51.02751 7.45649 26235 ft 453 kts 141°
2026-05-04 11:25 51.00504 7.49068 26289 ft 454 kts 141°
2026-05-04 11:25 50.98222 7.52534 26342 ft 454 kts 141°
2026-05-04 11:25 50.95937 7.55998 26373 ft 454 kts 141°
2026-05-04 11:26 50.91353 7.62929 26352 ft 457 kts 141°
2026-05-04 11:27 50.75181 7.87167 26656 ft 458 kts 141°
2026-05-04 11:28 50.72862 7.90611 26546 ft 458 kts 139°
2026-05-04 11:28 50.70532 7.94067 26522 ft 460 kts 137°
2026-05-04 11:28 50.68193 7.97539 26477 ft 463 kts 137°
2026-05-04 11:28 50.65842 8.01024 26470 ft 464 kts 140°
2026-05-04 11:29 50.63487 8.04504 26665 ft 463 kts 141°
2026-05-04 11:29 50.61140 8.07969 26625 ft 462 kts 137°
2026-05-04 11:29 50.58986 8.11705 26623 ft 461 kts 129°
2026-05-04 11:29 50.57068 8.15497 26749 ft 427 kts 128°
2026-05-04 11:31 50.44043 8.41057 27523 ft 426 kts 134°